This is the latest recevied weather packets stored in our database for station/object WA1TYB-13. If no packets are shown the sender has not sent any weather packets the latest 10 day(s).
| Time | Temp. | Humidity | Pressure | Rain* | Wind** | Luminosity | Snow |
|---|---|---|---|---|---|---|---|
| 1778073822 | -1.67° C | 77% | 1021.3 hPa | 0 mm | - | 32 W/m² | - |
| 1778073521 | -1.67° C | 76% | 1021.1 hPa | 0 mm | - | 31 W/m² | - |
| 1778073216 | -1.67° C | 74% | 1021.3 hPa | 0 mm | - | 30 W/m² | - |
| 1778072914 | -2.22° C | 75% | 1020.9 hPa | 0 mm | - | 28 W/m² | - |
| 1778072610 | -2.22° C | 76% | 1020.8 hPa | 0 mm | - | 34 W/m² | - |
| 1778072308 | -2.78° C | 76% | 1021.3 hPa | 0 mm | - | 26 W/m² | - |
| 1778072006 | -2.78° C | 78% | 1020.9 hPa | 0 mm | - | 23 W/m² | - |
| 1778071704 | -3.33° C | 79% | 1020.8 hPa | 0 mm | - | 22 W/m² | - |
| 1778071401 | -3.33° C | 79% | 1020.9 hPa | 0 mm | - | 18 W/m² | - |
| 1778071099 | -3.89° C | 80% | 1021.1 hPa | 0 mm | - | 16 W/m² | - |
| 1778070797 | -4.44° C | 79% | 1020.9 hPa | 0 mm | - | 14 W/m² | - |
| 1778070494 | -3.89° C | 79% | 1021.1 hPa | 0 mm | - | 12 W/m² | - |
| 1778070191 | -3.89° C | 80% | 1020.7 hPa | 0 mm | - | 10 W/m² | - |
| 1778069889 | -3.89° C | 80% | 1021.1 hPa | 0 mm | - | 6 W/m² | - |
| 1778069585 | -4.44° C | 79% | 1020.9 hPa | 0 mm | - | 3 W/m² | - |
| 1778069283 | -3.89° C | 79% | 1020.8 hPa | 0 mm | - | 2 W/m² | - |
| 1778068980 | -3.89° C | 80% | 1020.8 hPa | 0 mm | - | 0 W/m² | - |
| 1778068678 | -4.44° C | 80% | 1020.8 hPa | 0 mm | - | 0 W/m² | - |
| 1778068376 | -4.44° C | 79% | 1020.9 hPa | 0 mm | - | 0 W/m² | - |
| 1778068073 | -4.44° C | 79% | 1020.9 hPa | 0 mm | - | 0 W/m² | - |
| 1778067771 | -4.44° C | 79% | 1020.7 hPa | 0 mm | - | 0 W/m² | - |
| 1778067469 | -4.44° C | 79% | 1020.7 hPa | 0 mm | - | 0 W/m² | - |
| 1778067167 | -3.33° C | 78% | 1020.9 hPa | 0 mm | - | 0 W/m² | - |
| 1778066862 | -3.33° C | 78% | 1021.1 hPa | 0 mm | - | 0 W/m² | - |
| 1778066560 | -3.33° C | 80% | 1020.9 hPa | 0 mm | - | 0 W/m² | - |
* Rain latest hour (hover to see other rain measurements)
** Current wind speed in m/s (hover to see current wind gust speed)